Montreal Mirabel, Quebec

8:13 PM EDT on July 23, 2017 (GMT -0400)
Montreal Mirabel

Weather History for CYMX - January, 2013

Change the Weather History Date:

Wednesday, January 30, 2013

  Actual Average Record
Temperature  
Mean Temperature 32 °F -  
Max Temperature 41 °F 19 °F 41 °F (2013)
Min Temperature 24 °F 3 °F -23 °F (1997)
Degree Days  
Heating Degree Days 32    
Moisture  
Dew Point 34 °F    
Average Humidity 99    
Maximum Humidity 100    
Minimum Humidity 93    
Precipitation  
Precipitation 0.00 in - - ()
Sea Level Pressure  
Sea Level Pressure 29.44 in    
Wind  
Wind Speed 5 mph ()    
Max Wind Speed 10 mph    
Max Gust Speed -    
Visibility 2.4 miles    
Events Fog , Rain    
Averages and records for this station are not official NWS values.
T = Trace of Precipitation, MM = Missing Value Source: Averaged Metar Reports

Daily Weather History Graph

Daily Weather History Graph

Search for Another Location

Airport or City:

Trip Planner

Search our weather history database for the weather conditions in past years. The results will help you decide how hot, cold, wet, or windy it might be!

Date:

Astronomy

Jan. 30, 2013 Rise Set
Actual Time 7:19 AM EST 4:59 PM EST
Civil Twilight 6:47 AM EST 5:31 PM EST
Nautical Twilight 6:12 AM EST 6:07 PM EST
Astronomical Twilight 5:37 AM EST 6:42 PM EST
Moon 9:11 PM EST (1/30) 8:32 AM EST (1/30)
Length of Visible Light 10h 43m
Length of Day
9h 40m
Waning Gibbous, 88% of the Moon is Illuminated
Jan 30
Waning Gibbous
Feb 3
Last Quarter
Feb 10
New
Feb 17
First Quarter
Feb 25
Full

Hourly Weather History & Observations

Time (EST) Temp. Windchill Dew Point Humidity Pressure Visibility Wind Dir Wind Speed Gust Speed Precip Events Conditions
12:00 AM 24.8 °F 16.9 °F 23.0 °F 93% 29.86 in 1.5 mi NNE 6.9 mph - N/A Rain Light Freezing Rain
1:00 AM 26.6 °F 21.2 °F 26.6 °F 100% 29.83 in 1.5 mi NE 4.6 mph - N/A Rain Light Freezing Rain
2:00 AM 28.4 °F 22.2 °F 28.4 °F 100% 29.79 in 1.5 mi NNE 5.8 mph - N/A Rain Light Freezing Rain
3:00 AM 28.4 °F 21.2 °F 28.4 °F 100% 29.74 in 1.2 mi NE 6.9 mph - N/A Rain Light Freezing Rain
4:00 AM 30.2 °F 23.4 °F 30.2 °F 100% 29.69 in 1.2 mi NNE 6.9 mph - N/A Rain Light Freezing Rain
5:00 AM 30.2 °F 24.3 °F 30.2 °F 100% 29.65 in 1.0 mi NE 5.8 mph - N/A Rain Light Freezing Rain
6:00 AM 32.0 °F 27.5 °F 30.2 °F 93% 29.62 in 1.0 mi NE 4.6 mph - N/A Rain Light Freezing Rain
6:33 AM 32.0 °F 24.8 °F 32.0 °F 100% 29.59 in 1.0 mi NE 8.1 mph - N/A   Overcast
7:00 AM 32.0 °F 24.8 °F 32.0 °F 100% 29.58 in 1.0 mi NNE 8.1 mph - N/A   Overcast
8:00 AM 32.0 °F 25.6 °F 32.0 °F 100% 29.54 in 1.0 mi NNE 6.9 mph - N/A   Overcast
9:00 AM 33.8 °F 27.0 °F 32.0 °F 93% 29.50 in 1.0 mi NNE 8.1 mph - N/A   Overcast
10:00 AM 33.8 °F 28.6 °F 33.8 °F 100% 29.47 in 1.5 mi NNE 5.8 mph - N/A   Overcast
11:00 AM 33.8 °F 27.7 °F 33.8 °F 100% 29.43 in 2.0 mi NE 6.9 mph - N/A   Overcast
12:00 PM 35.6 °F 31.7 °F 35.6 °F 100% 29.38 in 2.0 mi NE 4.6 mph - N/A   Overcast
1:00 PM 37.4 °F 33.8 °F 35.6 °F 93% 29.33 in 2.5 mi NNE 4.6 mph - N/A   Overcast
1:38 PM 37.4 °F 32.1 °F 37.4 °F 100% 29.30 in 2.5 mi NNE 6.9 mph - N/A Rain Light Rain
2:00 PM 37.4 °F 32.8 °F 35.6 °F 93% 29.29 in 2.5 mi NE 5.8 mph - N/A Rain Light Rain
3:00 PM 37.4 °F 34.9 °F 37.4 °F 100% 29.28 in 2.0 mi NNE 3.5 mph - N/A Rain Light Rain
3:26 PM 37.4 °F 34.9 °F 37.4 °F 100% 29.28 in 3.0 mi NE 3.5 mph - N/A   Overcast
4:00 PM 35.6 °F 31.7 °F 35.6 °F 100% 29.29 in 3.0 mi North 4.6 mph - N/A   Overcast
5:00 PM 35.6 °F - 35.6 °F 100% 29.31 in 4.0 mi Calm Calm - N/A   Overcast
5:32 PM 35.6 °F 31.7 °F 35.6 °F 100% 29.29 in 5.0 mi North 4.6 mph - N/A Rain Light Rain
6:00 PM 35.6 °F - 35.6 °F 100% 29.30 in 8.0 mi Variable 2.3 mph - N/A Rain Light Rain
7:00 PM 35.6 °F 32.8 °F 35.6 °F 100% 29.30 in 8.0 mi SSE 3.5 mph - N/A Rain Light Rain
8:00 PM 37.4 °F 34.9 °F 37.4 °F 100% 29.29 in 8.0 mi SW 3.5 mph - N/A Rain Light Rain
8:21 PM 39.2 °F 32.5 °F 39.2 °F 100% 29.26 in 1.5 mi SSE 10.4 mph - N/A Rain Light Rain
9:00 PM 41.0 °F 35.8 °F 41.0 °F 100% 29.26 in 1.0 mi South 8.1 mph - N/A   Overcast
9:34 PM 41.0 °F 37.1 °F 41.0 °F 100% 29.23 in 0.5 mi SSE 5.8 mph - N/A Fog Fog
10:00 PM 39.2 °F 37.0 °F 39.2 °F 100% 29.22 in 0.5 mi East 3.5 mph - N/A Fog Fog
11:00 PM 35.6 °F 30.7 °F 35.6 °F 100% 29.20 in 0.2 mi NNE 5.8 mph - N/A Fog Fog